Regional Weather Roundup
Issued by NWS Bismarck, ND

Home | Current Version | Previous Version | Text Only | Print | Product List | Glossary On
Versions: 1 2 3 4 5 6 7 8 9 10 11 12 13 14 15 16 17 18 19 20 21 22 23 24 25 26 27 28 29 30 31 32 33 34 35 36 37 38 39 40 41 42 43 44 45 46 47 48 49 50
000
ASUS43 KBIS 061302
RWRBIS

NWR BROADCAST TEXT
NATIONAL WEATHER SERVICE BISMARCK ND
800 AM CDT FRI MAY 06 2016

NOTE: "FAIR" INDICATES FEW OR NO CLOUDS BELOW 12,000 FEET WITH NO
SIGNIFICANT WEATHER AND/OR OBSTRUCTIONS TO VISIBILITY.


CITY           SKY/WX    TMP DP  RH WIND       PRES   REMARKS
WILLISTON      NOT AVBL
MINOT          NOT AVBL
MINOT AFB      PTSUNNY   61  47  61 N21G26    29.87R
BISMARCK       NOT AVBL
DICKINSON      NOT AVBL
GARRISON         N/A     62  47  57 N23G30    29.86R
HETTINGER ARPT NOT AVBL
JAMESTOWN      NOT AVBL
CARRINGTON     FAIR      63  48  59 W13       29.80R
HAZEN          FAIR      57  46  67 NW5       29.90R
OAKES            N/A    N/A N/A N/A MISG        N/A
STANLEY        FAIR      55  43  62 N23G31    29.95R
$$

CITY           SKY/WX    TMP DP  RH WIND       PRES   REMARKS
GRAND FORKS    NOT AVBL
GRAND FORKS AF PTSUNNY   68  46  45 W13       29.69R
DEVILS LAKE    NOT AVBL
FARGO          NOT AVBL
CAVALIER       FAIR      63  46  55 N30G36    29.74R
GRAFTON        FAIR      68  45  42 NW16      29.72R
GWINNER        FAIR      66  50  55 SW16      29.76F
LANGDON        FAIR      61  46  59 N23G31    29.79R
$$

CITY           SKY/WX    TMP DP  RH WIND       PRES   REMARKS
BUFFALO          N/A     61  44  53 NW8       29.84R
RAPID CITY     PTSUNNY   53  44  71 NW6       29.88R
GLASGOW        CLOUDY    53  43  68 NW9       30.12R HAZE
SIDNEY         CLOUDY    55  41  58 N16       30.02R
WOLF POINT     CLOUDY    55  43  63 N14       30.10R
GLENDIVE       CLOUDY    55  43  62 N21G26    30.05R
MILES CITY     CLOUDY    59  42  53 NE20      30.01R
BAKER          MOSUNNY   57  43  59 N23G29    29.97R
$$

CITY           SKY/WX    TMP DP  RH WIND       PRES   REMARKS
BILLINGS       CLOUDY    55  41  59 N10       30.14R HAZE
GREAT FALLS    LGT RAIN  46  44  93 N10       30.24R
$$




USA.gov is the U.S. government's official web portal to all federal, state and local government web resources and services.